Wind_Speed
7 5 4 2 1 2 4 3 5 14 13 18 16 15 16 13 4 4 29 31 29 24 22 20 18 17 15 14 12 11 11 9 9 9 8 9 11 12 12 13 12 15 16 17 16 16 17 18 19
7 8 4 2 1 2 2 5 11 19 18 19 17 15 15 11 12 15 21 31 27 26 24 22 19 18 15 13 12 10 9 8 7 7 8 9 10 12 13 13 14 16 17 17 16 16 15 15 17
11 5 1 3 2 3 3 3 16 14 15 10 6 9 5 8 11 17 37 32 30 24 24 22 18 18 15 13 10 9 9 7 7 7 9 10 10 12 13 14 15 17 17 18 16 16 15 15 16
1 1 3 0 5 3 9 7 8 10 9 11 15 10 4 12 14 29 37 31 31 27 24 21 19 18 16 13 12 9 9 8 9 7 10 13 13 14 15 15 16 16 15 16 15 15 14 15 16
5 1 2 3 6 9 8 13 9 9 12 14 12 9 5 3 29 32 34 34 34 27 24 22 21 17 15 13 11 10 9 10 13 15 18 17 15 14 16 16 17 16 15 15 15 13 14 15 17
2 2 1 3 13 10 11 12 15 13 16 17 15 11 3 4 32 32 33 38 32 31 27 23 20 17 16 14 12 12 11 12 14 16 18 17 16 15 15 16 15 15 15 14 14 13 13 15 16
5 1 4 8 13 6 8 15 11 16 17 11 17 6 5 5 24 25 36 39 34 31 29 25 20 17 17 15 12 11 12 14 14 15 16 15 14 14 14 15 14 14 14 13 12 12 12 12 12
5 3 5 8 10 10 9 12 18 13 14 19 15 7 10 14 15 14 30 33 34 32 29 25 21 18 17 16 12 11 12 13 13 13 13 12 13 13 13 14 13 14 12 11 9 10 11 11 9
3 1 3 4 3 11 8 15 14 19 16 9 9 11 23 24 18 22 33 28 29 31 28 24 21 17 15 13 13 13 12 13 13 11 11 11 9 11 12 11 11 12 11 9 8 8 10 10 9
3 3 9 5 5 13 13 12 11 8 9 10 13 17 29 24 21 17 20 15 26 30 28 25 21 20 15 13 14 12 12 11 13 10 11 8 7 9 10 10 9 9 10 8 7 9 9 11 8
2 6 8 8 16 9 13 16 5 10 4 12 25 24 19 21 18 15 12 13 18 28 26 25 22 22 18 14 11 10 9 7 11 10 7 11 10 7 10 10 8 8 8 8 6 6 9 14 8
7 16 10 3 3 9 13 11 9 9 8 24 23 22 17 16 13 17 18 13 24 26 25 30 25 15 17 13 12 11 12 11 12 11 7 11 9 8 5 6 10 9 11 10 11 10 10 12 5
11 21 11 3 9 13 15 14 9 20 24 24 23 21 18 13 15 18 21 16 19 24 18 18 20 17 16 11 15 11 11 10 13 14 11 15 18 15 9 11 13 9 8 8 6 8 13 9 18
7 15 9 6 6 15 13 12 17 20 25 24 24 21 19 16 19 19 20 20 16 18 22 17 17 16 18 12 11 10 6 6 10 11 12 12 12 8 19 16 16 10 10 3 5 7 18 21 24
16 11 10 9 8 11 18 14 13 20 23 23 21 19 19 19 26 25 21 23 26 19 19 23 20 19 14 11 10 7 3 3 12 12 13 8 7 12 20 16 14 14 9 6 1 15 12 18 22
17 27 6 7 12 5 7 6 12 22 20 20 21 18 15 16 18 23 29 27 27 22 18 26 24 20 17 15 12 10 6 3 9 12 11 7 3 10 18 18 17 12 8 6 3 2 4 11 14
5 5 9 8 12 6 6 9 10 19 19 17 16 16 15 13 11 27 30 22 30 25 15 29 21 18 21 17 13 12 10 5 5 7 13 9 7 12 16 16 13 13 9 10 10 4 0 8 8
7 11 9 8 11 24 10 10 9 12 19 16 15 16 15 15 13 23 29 27 22 25 19 21 14 15 22 15 14 12 10 6 9 10 14 13 9 14 15 13 12 7 12 10 10 8 2 8 9
18 6 11 7 11 24 23 13 13 12 10 15 14 13 16 17 19 24 26 24 27 29 23 18 15 12 19 16 13 14 14 11 11 13 15 12 9 11 11 12 12 12 10 9 12 9 3 8 9
15 6 7 5 5 25 17 12 11 13 14 12 17 15 13 9 14 20 25 26 29 30 31 28 20 10 15 12 14 16 14 15 15 13 19 15 10 11 12 13 13 14 10 10 11 12 7 8 17
6 6 6 10 6 16 18 5 7 6 10 13 14 13 14 14 13 15 22 27 29 29 33 27 26 17 19 19 15 17 15 16 12 9 12 20 12 15 10 12 13 12 12 15 14 15 17 12 14
4 7 4 4 7 10 6 3 4 3 7 14 15 15 15 17 17 17 20 23 29 30 33 29 30 26 21 23 19 20 18 17 16 14 12 17 16 16 14 14 15 13 14 15 16 14 16 19 18
6 9 5 6 6 1 6 6 4 5 8 10 15 16 15 17 18 19 24 30 28 30 31 31 30 32 28 25 25 22 20 19 21 18 15 13 24 21 14 14 17 18 19 16 13 17 17 20 17
7 7 8 6 3 4 4 5 9 9 18 5 8 13 14 17 18 18 28 30 29 31 32 33 34 35 34 29 28 26 20 21 21 14 10 14 2 8 11 12 16 18 19 20 18 18 17 17 18
7 3 4 5 3 5 9 6 7 5 3 2 5 1 12 15 15 15 17 23 27 32 34 33 37 39 38 35 32 28 28 25 20 15 15 16 7 29 6 2 16 16 17 22 18 19 20 18 18
7 4 5 3 5 4 7 2 5 12 17 15 8 10 10 15 15 18 18 26 31 34 38 37 41 40 42 40 37 33 31 28 27 21 15 16 14 9 9 21 15 19 18 22 24 22 21 20 19
9 5 7 2 3 9 3 3 4 11 18 18 15 19 21 8 20 20 22 30 33 34 40 40 38 42 41 42 41 36 29 27 26 25 25 21 20 19 13 17 14 16 22 24 27 25 23 21 21
6 7 6 5 2 5 3 2 5 8 16 18 14 19 29 9 21 18 14 27 32 36 37 39 40 42 43 39 38 37 34 30 26 23 21 19 19 12 9 18 17 16 21 24 27 26 23 21 23
6 6 4 1 2 4 5 0 7 11 16 19 15 24 24 30 17 8 5 13 26 33 33 32 30 30 29 31 31 28 26 24 25 25 24 25 26 26 24 17 19 21 24 26 24 24 21 23 22
5 9 3 5 9 4 5 2 7 7 12 25 29 32 25 30 11 8 8 17 21 18 30 26 27 27 30 31 25 25 24 24 24 25 25 26 26 22 20 18 19 25 28 26 25 23 23 24 24
Wind_Direction
186 198 168 199 72 59 154 219 148 104 71 70 72 80 82 41 30 140 152 137 135 133 134 136 135 131 124 115 105 98 97 94 101 109 113 109 109 103 105 109 112 113 115 109 104 105 107 109 109
189 227 226 270 111 108 179 127 92 92 99 88 75 77 55 63 90 119 128 134 138 130 134 132 130 128 121 111 101 99 99 96 103 119 122 123 120 111 114 115 121 124 120 114 110 110 110 112 114
206 220 197 207 199 161 109 286 118 114 121 100 102 63 68 111 111 140 135 136 131 130 131 127 126 124 118 109 108 101 95 96 99 111 126 129 119 111 109 112 117 123 125 120 119 119 121 122 123
242 226 262 66 119 134 152 208 103 100 115 75 107 71 62 133 129 130 136 135 136 141 136 134 132 122 117 114 101 97 91 92 91 96 134 130 124 120 114 117 120 120 122 123 120 121 125 128 131
213 348 290 278 155 140 160 128 123 130 122 127 111 100 108 139 144 140 145 141 139 142 137 134 128 126 118 112 106 105 97 97 83 88 121 128 126 123 117 120 125 124 123 126 125 127 130 135 137
51 38 321 249 113 120 133 139 154 140 114 108 103 110 147 173 152 158 152 141 149 140 137 133 130 126 124 116 105 103 102 99 95 100 116 121 126 125 124 126 127 127 130 127 126 130 135 138 137
334 335 275 356 129 130 145 163 162 151 144 130 146 104 156 232 170 168 139 144 140 140 138 136 130 129 126 120 115 113 109 109 109 109 114 121 123 126 129 129 128 128 132 135 136 136 136 139 143
162 157 277 218 135 132 152 147 152 155 141 127 138 147 171 198 170 126 137 136 137 139 138 139 137 137 133 126 128 121 114 115 116 118 120 126 128 132 133 130 134 127 132 137 146 141 132 137 142
352 268 337 299 133 148 139 113 99 65 121 166 167 138 162 157 145 132 129 127 139 142 142 141 143 145 140 129 134 127 124 114 112 116 136 125 121 133 128 130 135 134 133 129 122 133 142 133 131
52 281 198 236 58 133 122 108 99 111 115 72 80 119 150 147 146 137 131 113 158 148 149 151 145 159 159 140 135 132 119 125 115 121 121 124 154 155 140 141 144 144 143 135 123 132 179 148 148
136 238 178 64 86 101 99 141 101 131 155 142 135 142 148 151 146 140 129 124 123 145 145 147 156 165 173 161 141 146 154 150 148 162 129 164 176 190 162 150 156 164 162 141 154 181 174 165 156
272 242 261 91 173 148 119 136 124 175 163 136 137 144 154 156 154 158 139 142 111 135 131 159 155 151 168 173 164 152 167 181 165 167 128 114 155 141 135 177 171 187 189 180 180 199 185 197 197
240 269 101 131 87 86 109 101 73 113 117 126 136 148 147 161 158 162 154 141 133 132 141 161 160 161 164 153 183 169 138 162 186 179 154 162 147 148 188 193 193 207 178 170 171 217 211 209 155
290 285 150 152 104 108 93 105 100 115 129 134 144 153 157 158 166 165 169 150 152 150 145 149 168 162 157 164 143 165 177 172 183 195 160 174 193 204 183 193 202 213 197 175 213 197 195 167 165
224 281 139 146 134 108 106 88 99 141 135 143 147 160 170 165 179 176 170 161 177 174 171 177 165 162 166 184 182 177 182 292 158 172 181 196 185 170 182 194 212 205 205 180 331 162 144 164 185
159 228 143 163 115 54 75 124 129 123 134 143 149 163 161 173 188 169 159 168 181 185 178 188 174 181 177 195 206 202 200 105 145 146 172 180 226 209 191 201 214 205 211 187 133 101 196 179 185
235 155 145 162 142 105 44 133 153 135 131 148 151 160 167 176 185 153 166 163 183 184 163 165 172 190 190 202 201 208 211 236 196 183 177 188 231 229 216 211 207 203 209 199 191 207 161 246 242
287 154 165 158 140 69 308 134 127 128 139 149 150 161 174 181 182 162 166 176 184 187 178 170 169 184 190 196 195 212 219 248 212 216 190 208 228 215 221 217 204 205 215 217 210 195 184 240 245
270 210 152 159 149 139 206 148 146 137 128 149 156 163 178 190 181 172 173 175 182 195 192 188 183 158 178 189 187 213 241 234 235 223 220 218 202 204 224 228 226 230 224 215 200 190 192 203 237
277 118 144 140 167 130 147 142 151 151 151 162 160 169 180 174 154 169 146 162 179 193 202 213 203 185 192 204 211 225 229 236 240 246 230 215 198 204 211 222 233 236 241 213 206 197 213 218 225
316 88 153 166 190 125 114 115 155 151 151 167 167 173 175 173 167 172 171 171 182 196 206 212 206 204 215 220 225 227 224 241 244 244 221 210 202 206 213 219 228 231 237 235 230 212 213 213 221
47 337 359 316 133 152 153 180 332 218 190 174 175 178 185 181 185 181 187 192 185 194 211 212 209 210 219 212 217 225 229 231 235 242 224 201 211 213 212 219 220 223 224 239 241 230 220 210 219
268 304 302 283 276 160 84 82 281 336 243 198 181 185 185 180 181 183 187 194 188 190 199 208 210 211 215 212 221 223 226 234 241 238 238 246 219 207 214 217 220 221 220 231 234 235 225 220 231
258 272 292 274 223 70 199 108 212 228 205 191 182 181 166 162 175 181 184 190 195 192 193 199 205 211 213 213 217 223 227 240 246 236 241 248 56 80 275 252 238 240 230 226 226 237 238 238 231
260 280 302 351 0 185 179 121 224 207 99 60 351 168 175 176 176 176 176 181 189 187 190 192 201 207 214 213 217 220 225 232 250 253 255 266 204 195 196 304 251 228 241 232 229 223 231 242 239
294 191 170 209 240 157 143 52 357 58 55 48 19 347 352 189 179 178 187 183 186 186 189 192 196 205 213 213 216 219 222 227 237 244 245 254 263 239 210 200 218 209 216 230 229 226 229 229 239
298 344 256 264 262 112 61 25 252 38 38 40 9 334 293 291 182 184 189 192 189 187 190 195 193 200 203 210 215 216 220 224 231 241 242 256 266 266 244 220 228 218 212 222 222 225 225 230 236
197 242 342 343 29 107 90 186 200 61 61 30 25 318 295 320 296 192 193 196 192 196 194 196 201 197 202 205 212 219 223 228 235 236 237 240 246 261 247 239 238 223 211 222 222 226 225 226 229
343 314 326 126 117 157 150 280 166 154 145 148 143 236 249 257 267 108 82 173 195 196 196 195 195 193 193 197 208 215 225 235 237 241 245 249 253 256 262 260 240 220 218 221 224 228 228 226 229
302 296 299 119 298 40 116 48 121 150 170 172 184 208 235 255 91 93 75 69 73 155 186 172 173 184 192 200 206 220 227 230 235 242 247 252 251 253 255 253 238 228 218 223 228 233 232 229 231
Height
763 764 765 767 785 779 788 776 748 754 760 749 747 757 772 770 779 805 791 796 801 806 810 812 814 816 818 820 821 822 823 824 825 826 827 828 829 829 830 831 833 834 836 837 838 839 840 840 842
762 764 767 768 788 796 786 755 761 758 756 753 759 764 771 787 775 784 793 798 802 806 809 812 814 816 819 821 822 824 824 826 826 827 829 830 831 831 832 833 834 836 837 839 840 841 842 843 843
762 764 769 775 778 784 790 759 749 749 750 756 769 767 776 789 784 786 794 797 803 807 810 812 814 817 820 823 823 825 826 827 827 829 830 832 833 834 835 837 838 839 839 840 842 844 845 846 847
761 761 764 781 772 763 769 760 749 752 751 757 766 785 779 782 783 788 792 797 802 807 810 813 815 818 820 823 825 827 827 828 828 829 830 833 835 836 837 839 841 842 843 843 845 846 847 849 850
759 761 775 774 763 752 749 743 749 757 757 760 761 789 789 783 784 789 792 798 801 806 810 813 816 819 821 824 826 828 828 829 829 829 830 833 835 838 839 840 842 843 845 845 845 846 848 849 851
768 771 781 776 759 746 742 742 748 753 756 763 774 782 790 784 785 787 792 796 800 804 809 814 817 821 822 825 827 829 830 831 831 832 833 835 837 838 839 840 842 844 846 847 847 847 848 851 852
777 786 788 769 755 755 747 740 750 752 756 763 762 785 787 785 788 789 791 794 798 804 808 814 818 822 824 825 828 830 832 833 834 835 837 839 840 841 841 842 844 845 848 849 848 848 851 855 855
772 778 770 757 753 757 736 733 737 745 753 750 757 783 791 780 786 790 794 797 800 802 808 814 819 823 825 826 828 831 833 834 837 838 840 841 842 843 843 845 846 848 849 850 851 852 853 854 856
763 779 783 756 747 746 730 737 736 738 750 748 755 763 770 777 784 791 794 800 804 805 809 814 819 823 826 826 829 831 834 836 839 840 840 844 846 845 847 849 849 851 852 852 854 854 854 855 860
780 783 762 740 728 735 729 735 742 750 758 763 763 764 773 780 784 788 793 799 804 806 809 814 819 823 826 828 830 833 837 838 839 839 843 848 845 848 849 851 852 853 851 852 854 854 854 854 858
776 777 732 725 722 721 730 738 735 750 764 759 768 772 776 780 786 789 795 800 801 806 809 814 819 823 826 828 830 832 836 839 841 840 842 843 848 849 850 851 853 854 852 854 854 854 854 857 859
780 741 734 722 715 721 734 734 746 745 742 752 762 770 777 783 787 791 797 801 802 806 808 814 820 824 826 828 829 833 836 838 841 841 842 842 846 848 849 853 852 853 853 853 848 851 853 857 857
770 747 722 719 717 721 723 737 738 746 746 755 767 775 780 786 789 793 798 801 804 807 812 815 819 824 826 827 830 833 835 837 839 841 844 843 844 844 842 848 850 851 851 850 850 852 856 857 856
749 745 726 719 718 718 730 738 738 748 752 762 769 776 781 787 789 794 797 800 804 807 812 815 820 823 825 827 830 833 835 836 837 839 842 844 843 843 844 845 848 850 851 853 848 851 855 858 858
758 758 723 722 721 730 727 754 756 750 752 764 771 775 780 785 790 792 796 799 804 806 810 814 819 822 823 826 829 832 833 834 835 837 839 841 841 841 841 844 845 847 849 851 851 851 854 857 859
745 751 755 726 724 732 734 780 751 749 756 769 772 776 778 782 786 790 795 799 803 805 810 813 817 819 821 824 827 830 831 833 834 835 838 840 840 840 841 842 844 845 845 846 848 851 854 856 857
737 758 750 738 719 741 749 772 753 748 757 769 772 776 778 781 785 789 793 798 802 805 807 810 815 817 819 822 826 828 830 832 833 834 837 838 831 837 841 839 841 843 845 845 845 848 851 853 854
756 747 741 743 734 750 768 766 756 750 755 764 770 776 778 779 782 785 789 794 800 804 808 810 813 814 818 822 825 827 829 830 831 832 834 835 835 837 840 838 839 840 842 843 844 845 849 850 854
727 731 740 725 717 763 772 761 759 750 752 763 769 772 776 776 777 782 787 791 797 802 806 809 812 816 818 821 824 826 827 829 829 830 831 833 834 835 836 837 838 840 841 841 842 844 845 848 852
722 731 738 722 711 735 755 763 753 750 753 755 762 767 770 771 774 779 783 789 793 797 802 805 809 814 816 819 822 825 826 826 827 827 828 830 832 834 835 836 838 840 843 844 843 844 844 846 849
725 731 733 738 721 728 745 770 759 749 749 754 756 759 764 769 774 778 781 785 790 795 798 801 808 811 813 815 819 823 824 825 825 825 825 828 832 834 836 838 839 839 841 843 845 845 844 844 846
739 709 710 721 748 775 733 809 783 760 759 756 756 757 762 767 770 774 778 782 785 790 795 799 805 808 810 813 816 819 821 821 821 822 825 827 830 831 833 835 835 837 839 838 841 844 843 841 843
728 704 713 717 735 741 770 803 782 769 771 760 755 753 751 757 763 768 774 778 782 786 790 795 801 804 807 810 813 816 818 818 817 820 823 825 821 822 829 832 836 834 835 835 835 838 840 841 841
696 711 717 721 739 791 778 789 798 777 755 756 748 747 746 751 756 761 768 775 779 783 787 792 796 800 803 806 809 812 814 814 815 818 820 819 824 817 827 829 834 833 834 834 831 833 836 837 837
709 733 784 786 778 795 764 777 774 751 755 752 753 755 744 746 751 757 761 767 774 778 782 787 791 794 797 800 803 805 807 810 811 815 817 818 825 818 826 822 828 827 829 830 830 830 831 834 834
716 723 774 785 793 781 762 780 796 763 754 754 752 760 756 742 743 749 754 757 761 768 774 778 781 786 790 793 796 798 802 804 806 811 814 813 817 818 815 817 817 816 820 825 828 827 827 830 832
718 742 709 742 731 782 787 779 768 762 761 763 758 754 742 750 733 737 743 749 754 759 763 767 771 776 781 784 790 794 797 800 802 804 811 810 811 815 813 815 813 811 815 819 822 824 824 826 828
703 699 747 752 772 800 790 804 799 788 785 783 777 758 746 756 763 730 736 745 749 753 756 761 765 768 773 779 784 789 792 796 799 802 805 807 809 810 811 812 811 811 812 816 819 821 821 822 823
722 732 723 729 745 781 801 799 781 783 786 790 791 769 771 772 756 735 737 735 744 749 754 757 763 768 774 778 782 787 790 793 796 799 801 803 806 808 810 810 809 809 810 812 815 816 818 817 818
705 716 717 767 764 757 776 802 769 773 776 778 776 779 773 769 730 736 738 740 741 743 750 755 761 767 772 776 780 784 787 789 792 794 795 797 799 802 802 805 805 805 806 808 809 811 813 813 814